User: anonymous   Login
Location: Del Oro Observatory
(38.3044°N, 104.8119°W)
Time: 12:47:10
(UTC-07:00)
Language:

Cosmos 1602 Rocket - Orbit

View from above orbital plane
View from above orbital plane
View from above satellite
View from above satellite

Ground track
Ground track

The orbit data is extracted from the following two-line orbital elements,

1 15332U 84105B   17020.88226159 +.00000072 +00000-0 +57314-5 0  9997
2 15332 082.5365 325.7568 0022292 133.1928 256.3812 14.83285891723665
Epoch (UTC): 20 January 2017 21:10:27
Eccentricity: 0.0022292
inclination: 82.5365°
perigee height: 603 km
apogee height: 634 km
right ascension of ascending node: 325.7568°
argument of perigee: 133.1928°
revolutions per day: 14.83285891
mean anomaly at epoch: 256.3812°
orbit number at epoch: 72366

The dashed part of the orbit path shows where the satellite is in the earth's shadow,  

DLR